| time (UTC) | temp F | wind direction | speed knots | gust knots | rain 1hr in | rain 24hr in | rain mn in | humidity % | barometer mb |
| 20260504081557 | 47 | 115 | 3.5 | 9.6 | 0.00 | 0.00 | 0.00 | 58 | 1015.8 |
| 20260504044553 | 55 | 17 | 3.5 | 12.2 | 0.00 | 0.00 | 0.00 | 41 | 1011.0 |
| 20260504043057 | 55 | 51 | 1.7 | 5.2 | 0.00 | 0.00 | 0.00 | 40 | 1010.5 |
| 20260504041549 | 56 | 30 | 0.9 | 4.3 | 0.00 | 0.00 | 0.00 | 39 | 1010.2 |
| 20260504040054 | 56 | 63 | 1.7 | 7.0 | 0.00 | 0.00 | 0.00 | 39 | 1009.8 |
| 20260504034556 | 57 | 39 | 1.7 | 6.1 | 0.00 | 0.00 | 0.00 | 38 | 1009.5 |
| 20260504033049 | 58 | 36 | 0.9 | 4.3 | 0.00 | 0.00 | 0.00 | 38 | 1009.2 |
| 20260504031552 | 58 | 30 | 2.6 | 5.2 | 0.00 | 0.00 | 0.00 | 37 | 1009.0 |
| 20260504030051 | 60 | 4 | 1.7 | 6.1 | 0.00 | 0.00 | 0.00 | 35 | 1008.7 |
| 20260504024552 | 61 | 74 | 1.7 | 6.1 | 0.00 | 0.00 | 0.00 | 32 | 1008.3 |
| 20260504023049 | 63 | 56 | 0.9 | 8.7 | 0.00 | 0.00 | 0.00 | 27 | 1008.2 |
| 20260504021552 | 65 | 18 | 0.0 | 1.7 | 0.00 | 0.00 | 0.00 | 22 | 1008.1 |
| 20260504020058 | 67 | 336 | 0.9 | 4.3 | 0.00 | 0.00 | 0.00 | 21 | 1008.2 |
| 20260504014559 | 69 | 15 | 1.7 | 5.2 | 0.00 | 0.00 | 0.00 | 20 | 1008.3 |
| 20260504013108 | 71 | 323 | 2.6 | 6.1 | 0.00 | 0.00 | 0.00 | 19 | 1008.3 |
| 20260504011552 | 72 | 273 | 2.6 | 7.0 | 0.00 | 0.00 | 0.00 | 19 | 1008.3 |
| 20260504010050 | 73 | 63 | 2.6 | 7.0 | 0.00 | 0.00 | 0.00 | 19 | 1008.3 |
| 20260504004546 | 73 | 304 | 2.6 | 5.2 | 0.00 | 0.00 | 0.00 | 18 | 1008.5 |
| 20260504003048 | 74 | 317 | 4.3 | 11.3 | 0.00 | 0.00 | 0.00 | 18 | 1008.6 |
| 20260504001552 | 74 | 210 | 3.5 | 8.7 | 0.00 | 0.00 | 0.00 | 18 | 1008.7 |
| 20260504000049 | 75 | 294 | 6.1 | 9.6 | 0.00 | 0.00 | 0.00 | 17 | 1008.8 |
| 20260503234549 | 75 | 340 | 4.3 | 11.3 | 0.00 | 0.00 | 0.00 | 18 | 1008.8 |
| 20260503233049 | 74 | 293 | 4.3 | 8.7 | 0.00 | 0.00 | 0.00 | 18 | 1008.9 |
| 20260503231554 | 75 | 29 | 6.1 | 14.8 | 0.00 | 0.00 | 0.00 | 17 | 1009.0 |
| 20260503230052 | 75 | 298 | 5.2 | 11.3 | 0.00 | 0.00 | 0.00 | 17 | 1009.0 |
| 20260503224558 | 75 | 319 | 4.3 | 13.9 | 0.00 | 0.00 | 0.00 | 18 | 1009.2 |
| 20260503223050 | 74 | 288 | 4.3 | 13.0 | 0.00 | 0.00 | 0.00 | 19 | 1009.3 |
| 20260503221559 | 75 | 262 | 6.1 | 13.0 | 0.00 | 0.00 | 0.00 | 18 | 1009.5 |
| 20260503220052 | 74 | 274 | 6.1 | 17.4 | 0.00 | 0.00 | 0.00 | 18 | 1009.8 |
| 20260503214559 | 74 | 304 | 6.1 | 13.9 | 0.00 | 0.00 | 0.00 | 18 | 1009.9 |
| 20260503213050 | 74 | 326 | 6.1 | 12.2 | 0.00 | 0.00 | 0.00 | 18 | 1010.0 |
| 20260503211556 | 73 | 281 | 3.5 | 14.8 | 0.00 | 0.00 | 0.00 | 19 | 1010.4 |
| 20260503210053 | 74 | 311 | 5.2 | 11.3 | 0.00 | 0.00 | 0.00 | 18 | 1010.8 |
| 20260503204609 | 73 | 277 | 4.3 | 11.3 | 0.00 | 0.00 | 0.00 | 19 | 1010.8 |
| 20260503203054 | 72 | 285 | 5.2 | 13.9 | 0.00 | 0.00 | 0.00 | 19 | 1010.9 |
| 20260503201549 | 72 | 345 | 6.1 | 13.0 | 0.00 | 0.00 | 0.00 | 20 | 1011.2 |
| 20260503200053 | 72 | 274 | 7.8 | 12.2 | 0.00 | 0.00 | 0.00 | 20 | 1011.5 |
| 20260503194549 | 72 | 281 | 7.0 | 13.0 | 0.00 | 0.00 | 0.00 | 19 | 1011.6 |
| 20260503193059 | 72 | 359 | 3.5 | 11.3 | 0.00 | 0.00 | 0.00 | 20 | 1011.6 |
| 20260503191610 | 72 | 255 | 4.3 | 12.2 | 0.00 | 0.00 | 0.00 | 19 | 1011.9 |
| 20260503190051 | 71 | 274 | 4.3 | 11.3 | 0.00 | 0.00 | 0.00 | 19 | 1012.1 |
| 20260503184550 | 70 | 259 | 3.5 | 12.2 | 0.00 | 0.00 | 0.00 | 20 | 1012.2 |
| 20260503183052 | 71 | 284 | 2.6 | 12.2 | 0.00 | 0.00 | 0.00 | 21 | 1012.3 |
| 20260503181552 | 71 | 270 | 6.1 | 15.6 | 0.00 | 0.00 | 0.00 | 21 | 1012.7 |
| 20260503180056 | 70 | 274 | 6.1 | 14.8 | 0.00 | 0.00 | 0.00 | 21 | 1012.9 |
| 20260503174555 | 70 | 284 | 4.3 | 11.3 | 0.00 | 0.00 | 0.00 | 23 | 1013.2 |
| 20260503173051 | 70 | 304 | 2.6 | 7.0 | 0.00 | 0.00 | 0.00 | 25 | 1013.2 |
| 20260503171550 | 68 | 359 | 1.7 | 5.2 | 0.00 | 0.00 | 0.00 | 29 | 1013.2 |